Location: Burgwalden
(48.2830°N, 10.7576°E)
Time: 21:59:39
(UTC+00:00)

CZ-2C R/B - Pass Details

Date: 26 September 2023
Orbit: 667 x 780 km, 98.3° (Epoch: 09 December)

Event Time Altitude Azimuth Distance (km) Brightness Sun altitude
Rises 02:48:12 0° 15° (NNE) 3,180 6.3 -23.4°
Reaches altitude 10° 02:50:33 10° 17° (NNE) 2,235 5.5 -23.0°
Maximum altitude 02:55:27 75° 103° (ESE) 740 2.4 -22.3°
Enters shadow 02:57:38 32° 183° (S) 1,195 3.2 -22.0°
